Regional Weather Roundup
Issued by NWS

Home | Current Version | Previous Version | Text Only | Print | Product List | Glossary Off
Versions: 1 2 3 4 5 6 7 8 9 10 11 12 13 14 15 16 17 18 19 20 21 22 23 24 25 26 27 28 29 30 31 32 33 34 35 36 37 38 39 40 41 42 43 44 45 46 47 48 49 50

783
ASUS43 KFSD 281610
RWRSD

WEATHER ROUNDUP FOR SOUTH DAKOTA
NATIONAL WEATHER SERVICE SIOUX FALLS SD
1100 AM CDT WED SEP 28 2016

NOTE: "FAIR" INDICATES FEW OR NO CLOUDS BELOW 12,000 FEET WITH NO
SIGNIFICANT WEATHER AND/OR OBSTRUCTIONS TO VISIBILITY.


SDZ001>005-009-010-012>017-281700-
NORTHWEST AND NORTH CENTRAL SOUTH DAKOTA

CITY           SKY/WX    TMP DP  RH WIND       PRES   REMARKS
BUFFALO          N/A     68  48  48 NE5       30.19R
FAITH            N/A     63  39  41 S13       30.24R
MOBRIDGE       SUNNY     57  44  62 E6        30.25R
$$

SDZ012>016-024>037-041>051-057-063-072>074-281700-
SOUTHWEST AND SOUTH CENTRAL SOUTH DAKOTA

CITY           SKY/WX    TMP DP  RH WIND       PRES   REMARKS
RAPID CTY ARPT SUNNY     69  47  45 SE5       30.26R
PIERRE         SUNNY     57  43  59 E7        30.25R
CUSTER         SUNNY     69  40  34 N7        30.37R
ELLSWORTH AFB  SUNNY     68  46  44 NE2       30.25R
PHILIP         SUNNY     63  43  48 E5        30.25R
PINE RIDGE     SUNNY     67  46  47 W6        30.27R
WINNER         FAIR      60  41  49 NE6       30.26R
$$

SDZ004>011-016>023-039-040-281700-
NORTHEAST SOUTH DAKOTA

CITY           SKY/WX    TMP DP  RH WIND       PRES   REMARKS
ABERDEEN       SUNNY     53  42  66 NE8       30.29R
WATERTOWN      SUNNY     55  45  68 NE9       30.24R
BROOKINGS      CLOUDY    49  44  83 N10       30.24R
SISSETON         N/A     47  44  90 VRB6      30.27R
$$

SDZ017-020-022-023-036>040-048>070-281700-
SOUTHEAST SOUTH DAKOTA

CITY           SKY/WX    TMP DP  RH WIND       PRES   REMARKS
SIOUX FALLS    MOSUNNY   55  45  68 N9        30.23R
HURON          MOSUNNY   53  43  68 N5        30.26R
CHAMBERLAIN    SUNNY     57  46  65 NE3       30.26S
MITCHELL       CLOUDY    51  44  77 N6        30.27R
YANKTON        SUNNY     54  45  71 N9        30.22R
$$

ABBREVIATIONS USED IN REMARKS
   TC - TEMPERATURE IN CELSIUS
  WCI - WIND CHILL INDEX
   HX - HEAT INDEX
  VSB - VISIBILITY





USA.gov is the U.S. government's official web portal to all federal, state and local government web resources and services.